Overview Statistics Trail Chart Weather Telemetry Raw packets
 

This is the latest recevied weather packets stored in our database for station/object KG4GJX. If no packets are shown the sender has not sent any weather packets the latest 10 day(s).

<< 1 2 3 4 5 6 7 >>
Time Temp. Humidity Pressure Rain* Wind** Luminosity Snow
1788612044 23.89° C 100% 1016.2 hPa 0 mm - - -
1788611382 23.33° C 100% 1016.2 hPa 0 mm - - -
1788610059 22.78° C 100% 1015.9 hPa 0 mm - - -
1788609397 22.22° C 100% 1015.9 hPa 0 mm - - -
1788608074 22.22° C 100% 1015.5 hPa 0 mm - - -
1788606752 22.22° C 100% 1015.2 hPa 0 mm - - -
1788606090 22.22° C 100% 1014.9 hPa 0 mm - - -
1788605427 22.78° C 100% 1014.9 hPa 0 mm - - -
1788604765 22.78° C 100% 1014.5 hPa 0 mm - - -
1788602782 22.78° C 100% 1014.9 hPa 0 mm - - -
1788600800 22.78° C 100% 1014.5 hPa 0 mm - - -
1788599478 23.33° C 100% 1014.5 hPa 0 mm - - -
1788598815 23.33° C 100% 1014.2 hPa 0 mm - - -
1788595512 23.33° C 100% 1014.5 hPa 0 mm - - -
1788594190 23.33° C 100% 1014.5 hPa 0 mm - - -
1788592868 23.33° C 100% 1014.5 hPa 0 mm - - -
1788591545 23.89° C 100% 1014.5 hPa 0 mm - - -
1788589563 23.89° C 100% 1014.9 hPa 0 mm - - -
1788588901 23.89° C 100% 1015.2 hPa 0 mm - - -
1788588238 23.89° C 100% 1014.9 hPa 0 mm - - -
1788587576 24.44° C 100% 1015.2 hPa 0 mm - - -
1788586913 24.44° C 100% 1014.9 hPa 0 mm - - -
1788586251 24.44° C 100% 1014.9 hPa 0 mm - - -
1788585589 25° C 100% 1014.9 hPa 0 mm - - -
1788583606 25° C 100% 1015.2 hPa 0 mm - - -

* Rain latest hour (hover to see other rain measurements)
** Current wind speed in m/s (hover to see current wind gust speed)